www.pogodaiklimat.ru

Погода и климат >> Архив погоды >> Норвегия >> Маяк Fruholmen


ПОГОДА на Маяке Fruholmen

  • Прогноз погоды на Маяке Fruholmen
  • Монитор погоды на Маяке Fruholmen

АРХИВ ПОГОДЫ на Маяке Fruholmen

Время (UTC), дата Ветер
(напр.,м/с)
 
Видим.   Явления Облачность Т
(С)
Тd
(С)
f
(%)
Тe
(С)
Тes
(С)
Комфортность P
(гПа)
Po
(гПа)
Тmin
(С)
Tmax
(С)
R
(мм)
R24
(мм)
S
(см)
22 15.09 Ю 1-2
{4}
н/о н/о +6.7 +1.6 70 +6 +6 1000.6 998.9
23 15.09 Ю 4-5
{5}
н/о н/о +7.6 +2.0 68 +4 +4 1000.4 998.7
00 16.09 Ю 4-7
{9}
н/о н/о +7.2 +2.7 73 +4 +4 1000.4 998.7
01 16.09 Ю 7-9
{9}
н/о н/о +7.2 +2.2 71 +3 +3 1000.2 998.5
02 16.09 ЮЗ 3-4
{10}
н/о н/о +6.8 +2.9 76 +4 +4 1000.2 998.5
03 16.09 ЮЗ 5-6
{9}
н/о н/о +7.2 +3.7 78 +3 +3 1000.0 998.3
04 16.09 ЮЗ 5-6
{7}
н/о н/о +7.4 +3.8 78 +4 +4 999.7 998.0
05 16.09 Ю 5-6
{7}
н/о н/о +7.5 +4.1 79 +4 +4 999.3 997.6
06 16.09 Ю 7-8
{10}
н/о н/о +7.5 +4.1 79 +3 +3 999.3 997.6 +6.6 +7.9
07 16.09 Ю 6-6
{7}
н/о н/о +7.3 +3.4 76 +3 +3 999.8 998.1
08 16.09 Ю 5-5
{7}
н/о н/о +7.4 +3.3 75 +4 +4 1000.4 998.7
09 16.09 Ю 4-5
{5}
н/о н/о +7.5 +3.1 74 +4 +4 1000.9 999.2
10 16.09 Ю 6-7
{8}
н/о н/о +7.2 +2.9 74 +3 +3 1001.2 999.5
11 16.09 Ю 4-5
{7}
н/о н/о +7.6 +2.4 70 +4 +4 1001.9 1000.2
12 16.09 Ю 6-7
{8}
н/о н/о +7.6 +2.1 68 +4 +4 1002.0 1000.3
13 16.09 Ю 6-7
{8}
н/о н/о +7.8 +1.3 63 +4 +4 1002.3 1000.6
14 16.09 Ю 5-7
{7}
н/о н/о +7.8 +1.4 64 +4 +4 1002.6 1000.9
15 16.09 Ю 5-7
{8}
н/о н/о +7.6 +1.2 64 +4 +4 1002.8 1001.1
16 16.09 Ю 6-8
{8}
н/о н/о +7.3 +2.0 69 +3 +3 1002.9 1001.2
17 16.09 Ю 5-7
{8}
н/о н/о +7.4 +2.8 73 +4 +4 1003.3 1001.6
18 16.09 Ю 6-8
{8}
н/о н/о +7.3 +2.1 70 +3 +3 1003.2 1001.5 +6.8 +7.9
19 16.09 Ю 7-8
{8}
н/о н/о +7.3 +2.0 69 +3 +3 1003.2 1001.5
20 16.09 Ю 6-7
{8}
н/о н/о +7.2 +2.1 70 +3 +3 1003.3 1001.6
21 16.09 Ю 5-7
{8}
н/о н/о +7.1 +2.3 71 +3 +3 1003.6 1001.9
22 16.09 Ю 5-6
{7}
н/о н/о +7.0 +2.8 75 +3 +3 1003.8 1002.1
23 16.09 Ю 4-5
{7}
н/о н/о +7.0 +2.2 71 +4 +4 1004.1 1002.4
00 17.09 Ю 4-6
{8}
н/о н/о +7.0 +1.6 68 +4 +4 1004.2 1002.5
01 17.09 Ю 3-4
{4}
н/о н/о +6.8 +1.7 70 +4 +4 1004.5 1002.8
02 17.09 Ю 3-4
{5}
н/о н/о +6.8 +1.1 67 +4 +4 1004.6 1002.9
03 17.09 Ю 4-5
{8}
н/о н/о +6.8 +0.8 66 +3 +3 1004.7 1003.0
04 17.09 Ю 4-4
{7}
н/о н/о +6.7 +0.6 65 +3 +3 1004.9 1003.2
05 17.09 Ю 3-4
{4}
н/о н/о +6.7 +0.6 65 +4 +4 1005.2 1003.5
06 17.09 Ю 3-4
{8}
н/о н/о +6.7 +0.6 65 +4 +4 1005.4 1003.7 +6.6 +7.4
07 17.09 Ю 2-2
{4}
н/о н/о +6.7 +0.6 65 +5 +5 1005.7 1004.0
08 17.09 Ю 3-5
{5}
н/о н/о +6.8 -0.1 61 +4 +4 1006.0 1004.3
09 17.09 Ю 6-8
{8}
н/о н/о +6.3 +0.7 67 +2 +2 1006.4 1004.7
10 17.09 Ю 4-5
{6}
н/о н/о +6.3 0.0 64 +3 +3 1006.8 1005.1
11 17.09 Ю 2-2
{4}
н/о н/о +6.9 -0.1 61 +5 +5 1007.0 1005.3
12 17.09 ЮЗ 8-10
{10}
н/о н/о +5.9 +1.1 71 +1 +1 1007.3 1005.6
13 17.09 Ю 2-2
{10}
н/о н/о +5.7 +0.2 68 +4 +4 1007.7 1006.0
14 17.09 Ю 3-4
{4}
н/о н/о +5.8 +0.6 69 +3 +3 1007.7 1006.0
15 17.09 Ю 4-7
{7}
н/о н/о +5.2 +0.8 73 +1 +1 1007.8 1006.0
16 17.09 Ю 4-7
{7}
н/о н/о +5.2 +0.7 73 +1 +1 1008.2 1006.4
17 17.09 Ю 8-9
{9}
н/о н/о +5.8 +0.4 68 +1 +1 1007.8 1006.1
18 17.09 Ю 6-8
{10}
н/о н/о +6.3 -0.4 62 +2 +2 1008.1 1006.4 +4.9 +7.1
19 17.09 Ю 6-9
{10}
н/о н/о +6.3 -0.2 63 +2 +2 1008.3 1006.6
20 17.09 ЮЗ 6-11
{14}
н/о н/о +4.4 -0.4 71 -1 -1 1009.1 1007.3
21 17.09 Ю 3-5
{11}
н/о н/о +5.3 -0.4 67 +2 +2 1009.3 1007.5
22 17.09 Ю 8-10
{10}
н/о н/о +5.9 -0.8 62 +1 +1 1009.0 1007.3
23 17.09 Ю 6-9
{10}
н/о н/о +5.6 -1.3 61 +1 +1 1009.4 1007.6
00 18.09 ЮЗ 8-11
{14}
н/о н/о +5.0 -0.3 69 -1 -1 1009.6 1007.8
01 18.09 Ю 6-9
{9}
н/о н/о +4.3 -0.5 71 -1 -1 1009.6 1007.8
02 18.09 Ю 3-4
{8}
н/о н/о +4.8 -0.3 70 +2 +2 1009.8 1008.0
03 18.09 ЮЗ 6-7
{8}
н/о н/о +5.3 -0.9 64 +1 +1 1009.6 1007.8
04 18.09 ЮЗ 5-7
{7}
н/о н/о +4.4 -0.5 70 -0 -0 1009.9 1008.1
05 18.09 ЮЗ 3-4
{6}
н/о н/о +5.2 -0.4 67 +2 +2 1009.7 1007.9
06 18.09 ЮЗ 1-3
{9}
н/о н/о +4.5 -0.5 70 +3 +3 1009.8 1008.0 +3.6 +6.5
07 18.09 ЮЗ 6-7
{10}
н/о н/о +4.6 +0.1 73 -0 -0 1010.0 1008.2
08 18.09 Ю 5-8
{10}
н/о н/о +3.3 -0.2 78 -2 -2 1010.2 1008.4
09 18.09 З 1-4
{4}
н/о н/о +4.4 -0.1 73 +3 +3 1010.5 1008.7
10 18.09 ЮЗ 5-8
{8}
н/о н/о +4.4 -1.2 67 -0 -0 1010.7 1008.9
11 18.09 ЮЗ 2-4
{5}
н/о н/о +5.2 -0.8 65 +3 +3 1010.8 1009.0
12 18.09 ЮЗ 1-2
{10}
н/о н/о +5.0 +0.1 71 +4 +4 1010.9 1009.1
13 18.09 ЮЗ 2-4
{4}
н/о н/о +5.3 +0.3 70 +3 +3 1010.8 1009.0
14 18.09 ЮЗ 1-3
{5}
н/о н/о +4.9 -0.4 69 +4 +4 1011.0 1009.2
15 18.09 ЮЗ 3-4
{5}
н/о н/о +4.3 -0.2 73 +1 +1 1011.0 1009.2
16 18.09 ЮЗ 2-3
{6}
н/о н/о +4.8 -0.4 69 +2 +2 1011.0 1009.2
17 18.09 ЮЗ 2-4
{6}
н/о н/о +3.4 -0.8 74 +1 +1 1011.1 1009.3
18 18.09 ЮЗ 3-4
{6}
н/о н/о +4.9 -2.4 59 +2 +2 1010.9 1009.1 +3.0 +5.4
19 18.09 ЮЗ 4-5
{5}
н/о н/о +4.4 -2.6 60 +1 +1 1010.9 1009.1
20 18.09 ЮЗ 1-2
{5}
н/о н/о +4.2 -2.2 63 +3 +3 1010.9 1009.1
21 18.09 ЮЗ 1-3
{4}
н/о н/о +4.7 -4.3 52 +4 +4 1010.7 1008.9
22 18.09 ЮЗ 4-5
{7}
н/о н/о +3.8 -1.8 67 -0 -0 1010.3 1008.5
23 18.09 ЮЗ 1-2
{6}
н/о н/о +3.5 -1.4 70 +2 +2 1010.9 1009.1
00 19.09 ЮЗ 4-5
{7}
н/о н/о +3.6 -1.3 70 -1 -1 1010.9 1009.1
01 19.09 ЮЗ 1-3
{5}
н/о н/о +4.3 -3.6 56 +3 +3 1010.6 1008.8
02 19.09 ЮЗ 1-2
{4}
н/о н/о +4.3 -4.0 55 +4 +4 1010.4 1008.6
03 19.09 ЮЗ 3-5
{6}
н/о н/о +3.8 -2.5 63 0 0 1010.2 1008.4
04 19.09 ЮЗ 2-4
{4}
н/о н/о +4.1 -4.8 52 +2 +2 1009.8 1008.0
05 19.09 ЮЗ 5-8
{8}
н/о н/о +3.9 -2.1 65 -1 -1 1009.5 1007.7
06 19.09 З 9-13
{13}
н/о н/о +1.6 -1.6 79 -6 -6 1009.8 1008.0 +1.6 +5.1
07 19.09 З 9-12
{12}
н/о н/о +3.9 -1.7 67 -2 -2 1009.2 1007.4
08 19.09 З 8-11
{14}
н/о н/о +4.3 -4.4 53 -1 -1 1009.3 1007.5
09 19.09 З 7-10
{12}
н/о н/о +4.5 -3.1 58 -1 -1 1009.5 1007.7
10 19.09 З 11-13
{13}
н/о н/о +4.8 -1.9 62 -2 -2 1008.7 1006.9
11 19.09 З 14-16
{16}
н/о н/о +5.4 -0.7 65 -1 -1 1008.6 1006.8
12 19.09 З 15-21
{21}
н/о н/о +5.5 -0.4 66 -2 -2 1008.3 1006.5
13 19.09 З 14-17
{22}
н/о н/о +5.4 -0.8 64 -1 -1 1008.2 1006.5
14 19.09 З 14-16
{20}
н/о н/о +4.5 +0.6 76 -3 -3 1008.0 1006.2
15 19.09 З 13-16
{19}
н/о н/о +4.9 +1.2 77 -2 -2 1007.3 1005.5
16 19.09 СЗ 11-12
{14}
н/о н/о +5.1 +0.3 71 -1 -1 1007.7 1005.9
17 19.09 СЗ 8-10
{13}
н/о н/о +4.5 +0.8 77 -1 -1 1007.8 1006.0
18 19.09 СЗ 11-14
{22}
н/о н/о +4.2 -0.6 71 -3 -3 1008.0 1006.2 +1.6 +6.1
19 19.09 СЗ 11-13
{15}
н/о н/о +4.9 -1.0 66 -2 -2 1008.2 1006.4
20 19.09 СЗ 11-13
{13}
н/о н/о +4.7 -0.8 67 -2 -2 1008.3 1006.5
21 19.09 СЗ 10-12
{13}
н/о н/о +4.2 -0.7 70 -2 -2 1008.7 1006.9
22 19.09 СЗ 10-12
{14}
н/о н/о +4.8 -2.0 61 -1 -1 1008.8 1007.0
23 19.09 СЗ 9-10
{12}
н/о н/о +4.7 -0.8 67 -1 -1 1009.0 1007.2
00 20.09 З 10-12
{15}
н/о н/о +4.7 -1.3 65 -2 -2 1008.8 1007.0
01 20.09 З 9-13
{13}
н/о н/о +4.2 -0.3 72 -2 -2 1008.9 1007.1
02 20.09 СЗ 10-13
{13}
н/о н/о +4.0 -0.3 74 -3 -3 1009.0 1007.2
03 20.09 СЗ 10-12
{12}
н/о н/о +4.5 -0.7 69 -2 -2 1008.8 1007.0
04 20.09 СЗ 10-12
{13}
н/о н/о +4.6 -1.2 66 -2 -2 1009.0 1007.2
05 20.09 СЗ 8-11
{12}
н/о н/о +4.7 -0.6 68 -1 -1 1008.7 1006.9
06 20.09 СЗ 7-9
{13}
н/о н/о +4.1 -0.1 74 -2 -2 1008.9 1007.1 +3.7 +5.1
07 20.09 СЗ 7-10
{10}
н/о н/о +4.8 -0.9 67 -0 -0 1009.0 1007.2
08 20.09 СЗ 6-9
{10}
н/о н/о +4.8 -1.1 66 0 0 1009.2 1007.4
09 20.09 СЗ 7-9
{11}
н/о н/о +4.8 -1.2 65 -0 -0 1009.3 1007.5
10 20.09 СЗ 8-10
{12}
н/о н/о +4.4 -0.9 68 -1 -1 1009.5 1007.7
11 20.09 СЗ 6-8
{10}
н/о н/о +4.6 -0.7 68 -0 -0 1009.5 1007.7
12 20.09 З 6-9
{12}
н/о н/о +5.0 -1.1 65 0 0 1009.5 1007.7
13 20.09 З 5-6
{12}
н/о н/о +4.3 -0.9 69 -0 -0 1009.4 1007.6
14 20.09 З 6-9
{10}
н/о н/о +4.4 -0.5 70 -1 -1 1009.1 1007.3
15 20.09 З 6-8
{10}
н/о н/о +4.9 -0.8 67 0 0 1008.7 1006.9
16 20.09 З 6-7
{10}
н/о н/о +4.6 -0.9 67 -0 -0 1008.5 1006.7
17 20.09 З 7-9
{9}
н/о н/о +4.7 -0.2 71 -1 -1 1008.3 1006.5
18 20.09 З 6-7
{12}
н/о н/о +4.1 -0.2 74 -1 -1 1008.1 1006.3 +3.9 +5.3
19 20.09 З 7-8
{8}
н/о н/о +4.5 -0.7 69 -1 -1 1007.8 1006.0
20 20.09 З 7-9
{9}
н/о н/о +4.5 -0.7 69 -1 -1 1007.7 1005.9
21 20.09 З 6-8
{9}
н/о н/о +4.8 -1.0 66 0 0 1007.4 1005.6
22 20.09 З 6-7
{8}
н/о н/о +4.4 -0.6 70 -1 -1 1007.3 1005.5
23 20.09 З 4-5
{7}
н/о н/о +4.9 -1.3 64 +1 +1 1007.0 1005.2
00 21.09 З 5-6
{9}
н/о н/о +4.9 -1.2 65 +1 +1 1006.8 1005.0
01 21.09 З 4-6
{7}
н/о н/о +5.1 -1.3 63 +1 +1 1006.7 1004.9
02 21.09 З 3-5
{7}
н/о н/о +5.3 -1.3 62 +2 +2 1006.5 1004.8
03 21.09 З 1-2
{6}
н/о н/о +4.5 -1.3 66 +4 +4 1006.3 1004.5
04 21.09 З 2-5
{5}
н/о н/о +4.8 -1.2 65 +3 +3 1006.2 1004.4
05 21.09 З 3-4
{6}
н/о н/о +3.9 -0.7 72 0 0 1006.4 1004.6
06 21.09 штиль 0-1
{7}
н/о н/о +3.5 -0.1 77 +3 +3 1006.3 1004.5 +3.4 +5.3
07 21.09 З 1-3
{3}
н/о н/о +4.3 +0.6 77 +3 +3 1006.4 1004.6
08 21.09 СЗ 1-2
{3}
н/о н/о +5.0 +0.9 75 +4 +4 1006.5 1004.7
09 21.09 З 3-4
{4}
н/о н/о +5.7 +0.2 68 +3 +3 1006.8 1005.1
10 21.09 З 5-5
{8}
н/о н/о +4.9 +0.1 71 0 0 1007.7 1005.9
11 21.09 СЗ 1-2
{5}
н/о н/о +5.0 0.0 70 +4 +4 1008.3 1006.5
12 21.09 штиль 0-1
{8}
н/о н/о +4.4 -0.2 72 +4 +4 1009.0 1007.2
13 21.09 СЗ 1-3
{3}
н/о н/о +4.0 -0.2 74 +3 +3 1009.8 1008.0
14 21.09 СЗ 2-4
{4}
н/о н/о +5.8 -0.6 63 +4 +4 1010.1 1008.3
15 21.09 СЗ 5-7
{7}
н/о н/о +5.2 0.0 69 +1 +1 1010.8 1009.0
16 21.09 СЗ 7-9
{10}
н/о н/о +5.5 -1.4 61 +1 +1 1011.3 1009.5
17 21.09 З 7-9
{10}
н/о н/о +5.5 -1.1 62 +1 +1 1011.7 1009.9
18 21.09 З 9-11
{14}
н/о н/о +5.4 -1.8 60 -0 -0 1012.1 1010.3 +3.5 +5.9
19 21.09 З 8-11
{13}
н/о н/о +4.9 -1.5 63 -1 -1 1012.5 1010.7
20 21.09 З 4-5
{15}
н/о н/о +4.4 -0.1 73 0 0 1013.2 1011.4
21 21.09 З 10-12
{12}
н/о н/о +4.4 -1.6 65 -2 -2 1014.1 1012.3
22 21.09 З 8-10
{14}
н/о н/о +4.8 -1.0 66 -1 -1 1014.4 1012.6
23 21.09 СЗ 8-9
{14}
н/о н/о +4.8 -1.0 66 -1 -1 1015.2 1013.4
00 22.09 СЗ 11-13
{15}
н/о н/о +4.8 -0.2 70 -2 -2 1015.8 1014.0
01 22.09 СЗ 12-15
{15}
н/о н/о +4.5 -0.8 68 -2 -2 1016.3 1014.5
02 22.09 СЗ 11-14
{14}
н/о н/о +4.3 -0.9 69 -2 -2 1016.9 1015.1
03 22.09 СЗ 9-10
{14}
н/о н/о +4.4 -1.2 67 -2 -2 1017.4 1015.6
04 22.09 СЗ 7-9
{14}
н/о н/о +4.7 -1.1 66 -1 -1 1017.8 1016.0
05 22.09 СЗ 9-11
{11}
н/о н/о +5.1 -1.0 65 -1 -1 1018.5 1016.7
06 22.09 СЗ 5-7
{15}
н/о н/о +4.6 -0.4 70 0 0 1018.7 1016.9 +3.5 +5.5
07 22.09 СЗ 10-13
{13}
н/о н/о +5.1 -1.8 61 -1 -1 1019.5 1017.7
08 22.09 З 11-13
{15}
н/о н/о +5.3 -0.9 64 -1 -1 1019.7 1017.9
09 22.09 СЗ 9-11
{15}
н/о н/о +5.3 -1.0 64 -0 -0 1020.2 1018.4
10 22.09 СЗ 12-14
{15}
н/о н/о +5.3 -0.8 65 -1 -1 1020.7 1018.9
11 22.09 СЗ 11-13
{15}
н/о н/о +5.2 -1.4 62 -1 -1 1021.1 1019.3
12 22.09 СЗ 11-13
{15}
н/о н/о +5.1 -1.4 63 -1 -1 1021.5 1019.7
13 22.09 СЗ 10-12
{15}
н/о н/о +5.1 0.0 70 -1 -1 1021.8 1020.0
14 22.09 СЗ 8-10
{13}
н/о н/о +4.8 0.0 71 -1 -1 1022.1 1020.3
15 22.09 СЗ 9-11
{15}
н/о н/о +5.5 -0.6 65 -0 -0 1022.4 1020.6
16 22.09 СЗ 9-12
{14}
н/о н/о +5.1 -1.0 65 -1 -1 1022.6 1020.8
17 22.09 СЗ 9-11
{14}
н/о н/о +5.2 -1.2 63 -1 -1 1022.6 1020.8
18 22.09 СЗ 9-13
{15}
н/о н/о +4.6 -1.4 65 -1 -1 1022.7 1020.9 +4.2 +5.8
19 22.09 СЗ 11-14
{14}
н/о н/о +5.1 -0.7 66 -1 -1 1022.8 1021.0
20 22.09 СЗ 9-13
{14}
н/о н/о +5.0 -0.5 68 -1 -1 1022.9 1021.1
21 22.09 СЗ 10-13
{16}
н/о н/о +5.0 -1.1 65 -1 -1 1023.1 1021.3

 

Местоположение метеостанции Маяк Fruholmen (Норвегия): широта 71.09 долгота 23.98 высота над уровнем моря 13 м.

В архиве по умолчанию представлена погода на Маяке Fruholmen за последнюю неделю. Архивные данные за месяц целиком и за предыдущие месяцы, начиная с января 2011 года, Вы можете получить, выбрав интересующий диапазон дат из раскрывающегося списка и нажав кнопку "Ввод!".


*Определитесь, кто Вы:
робот инопланетянин человек

Внимание! Время в таблицах - всемирное. Для получения местного времени необходимо прибавить поправку, которая равна 1 ч.

Смотрите также архив погоды в соседних городах и на ближайших метеорологических станциях:

Погода в Хаммерфест аэропорту (Норвегия) (51 км)
Погода в Хоннигсвог аэропорту (Норвегия) (73 км)
Погода на Хасвике (Норвегия) (78 км)
Погода в Рогнсундете (Норвегия) (87 км)
Погода в Хасвик аэропорту (Норвегия) (95 км)
Погода в Банаке (Норвегия) (120 км)
Погода в Альта аэропорту (Норвегия) (126 км)
Погода в Мехамн аэропорту (Норвегия) (139 км)
Погода на Маяке Slettnes (Норвегия) (153 км)
Погода в Суоловуопми-Лулит (Норвегия) (169 км)

Пояснения к столбцам:

Ветер - указаны скорость ветра в м/с - средняя за 10 мин, порывы в срок и между сроками (в фигурных скобках) и направление, откуда дует ветер: С - северный, СВ - северо-восточный, В - восточный, ЮВ - юго-восточный, Ю - южный, ЮЗ - юго-западный, З - западный, СЗ - северо-западный.
Видимость - горизонтальная дальность видимости в метрах или километрах. При видимости от 1 до 10 км при отсутствии осадков обычно наблюдается дымка, при ухудшении видимости до 1 км и менее - туман. В сухую погоду видимость может ухудшаться дымом, пылью или мглою.
Явления - указаны атмосферные явления, наблюдавшиеся в срок или в последний час перед сроком; фигурными скобками обозначены явления, наблюдавшиеся между сроками (за 1-3 часа до срока); квадратными скобками обозначены град или гололедные отложения с указанием их диаметра в мм.
Облачность - указаны через наклонную черту общая и нижняя облачность в баллах и высота нижней границы облаков в метрах; квадратными скобками обозначены формы облаков: Ci - перистые, Cs - перисто-слоистые, Cc - перисто-кучевые, Ac - высококучевые, As - высокослоистые, Sc - слоисто-кучевые, Ns - слоисто-дождевые, Cu - кучевые, Cb - кучево-дождевые. Подробнее классификацию облаков см. в Атласе облаков (PDF).
T - Температура воздуха - температура, измеренная на высоте 2 м над землей.
Td - Температура точки росы - температура, при понижении до которой содержащийся в воздухе водяной пар достигнет насыщения.
f - Относительная влажность воздуха - влажноcть воздуха, измеренная на высоте 2 м над землей.
Te - Эффективная температура - температура, которую ощущает одетый по сезону человек в тени. Характеристика душности погоды. При расчете учитывается влияние влажности воздуха и скорости ветра на теплоощущения человека.
Tes - Эффективная температура на солнце - температура, которую ощущает человек, с поправкой на солнечный нагрев. Характеристика знойности погоды. Зависит от высоты солнца над горизонтом, облачности и скорости ветра. Ночью, в пасмурную погоду, а также при ветре 12 м/с и более поправка равна нулю.
P - Атмосферное давление - приведенное к уровню моря атмосферное давление.
Po - Атмосферное давление - измеренное на уровне метеостанции атмосферное давление.
Tmin - Минимальная температура - минимум температуры воздуха на высоте 2 м над землей.
Tmax - Максимальная температура - максимум температуры воздуха на высоте 2 м над землей.
R - Количество осадков - Количество выпавших осадков за период времени, мм. При наведении курсора мыши на число - период времени, за который выпало указанное количество осадков.
R24 - Количество осадков - Количество выпавших осадков за 24 часа, мм.
S - Снежный покров - Высота снежного покрова, см. При наведении курсора мыши на число - состояние снежного покрова и степень покрытия местности в баллах.